Weather History for Kingman, AZ

Change the Weather History Date:

Thursday, October 11, 2012

  Actual Average Record
Temperature  
Mean Temperature 64 °F 65 °F  
Max Temperature 76 °F 79 °F 95 °F (1965)
Min Temperature 51 °F 51 °F 32 °F (1924)
Degree Days  
Heating Degree Days 1 3  
Month to date heating degree days 1 20  
Since 1 July heating degree days 1 26  
Cooling Degree Days 0 3  
Month to date cooling degree days 78 44  
Year to date cooling degree days 2282 2070  
Growing Degree Days 15 (Base 50)    
Moisture  
Dew Point 49 °F    
Average Humidity 65    
Maximum Humidity 100    
Minimum Humidity 29    
Precipitation  
Precipitation 0.29 in 0.02 in 0.29 in (2012)
Month to date precipitation 0.29 0.17  
Year to date precipitation 6.81 6.46  
Sea Level Pressure  
Sea Level Pressure 29.80 in    
Wind  
Wind Speed 11 mph (SSE)    
Max Wind Speed 31 mph    
Max Gust Speed 41 mph    
Visibility 9 miles    
Events Rain , Thunderstorm    
T = Trace of Precipitation, MM = Missing Value Source: NWS Daily Summary

Daily Weather History Graph

Daily Weather History Graph

Search for Another Location

Airport:

Trip Planner

Search our weather history database for the weather conditions in past years. The results will help you decide how hot, cold, wet, or windy it might be!

Date:

Astronomy

Oct. 11, 2012 Rise Set
Actual Time 6:39 AM MST 6:05 PM MST
Civil Twilight 6:13 AM MST 6:30 PM MST
Nautical Twilight 5:44 AM MST 6:59 PM MST
Astronomical Twilight 5:14 AM MST 7:29 PM MST
Moon 2:30 AM MST (10/11) 3:36 PM MST (10/11)
Length of Visible Light 12h 17m
Length of Day
11h 26m
Waning Crescent, 17% of the Moon is Illuminated
Oct 11
Waning Crescent
Oct 15
New
Oct 21
First Quarter
Oct 29
Full
Nov 6
Last Quarter

Hourly Weather History & Observations

Time (MST) Temp. Dew Point Humidity Pressure Visibility Wind Dir Wind Speed Gust Speed Precip Events Conditions
12:51 AM 63.0 °F 39.0 °F 41% 29.73 in 10.0 mi SSE 9.2 mph - N/A   Clear
1:51 AM 62.1 °F 39.0 °F 43% 29.73 in 10.0 mi ESE 11.5 mph - N/A   Unknown
2:51 AM 63.0 °F 41.0 °F 45% 29.89 in 10.0 mi East 13.8 mph - N/A   Clear
3:51 AM 63.0 °F 41.0 °F 45% 29.70 in 10.0 mi East 12.7 mph - N/A   Clear
4:51 AM 64.0 °F 43.0 °F 46% 29.70 in 10.0 mi ESE 11.5 mph - N/A   Clear
5:51 AM 62.1 °F 43.0 °F 50% 29.71 in 10.0 mi East 11.5 mph - N/A   Overcast
6:51 AM 63.0 °F 44.1 °F 50% 29.73 in 10.0 mi ESE 10.4 mph - N/A   Scattered Clouds
7:51 AM 66.9 °F 44.1 °F 44% 29.75 in 10.0 mi East 3.5 mph - N/A   Mostly Cloudy
8:51 AM 72.0 °F 39.0 °F 30% 29.74 in 10.0 mi SSE 13.8 mph 19.6 mph N/A   Overcast
9:51 AM 71.1 °F 44.1 °F 38% 29.75 in 10.0 mi SE 20.7 mph 26.5 mph N/A   Overcast
10:51 AM 73.4 °F 39.2 °F 29% 29.91 in 10.0 mi SE 21.9 mph 35.7 mph N/A   Overcast
11:51 AM 73.9 °F 39.9 °F 29% 29.72 in 10.0 mi SSE 28.8 mph 39.1 mph N/A   Overcast
12:26 PM 68.0 °F 48.2 °F 49% 29.89 in 10.0 mi SSW 9.2 mph 26.5 mph N/A   Overcast
12:51 PM 64.9 °F 52.0 °F 63% 29.74 in 10.0 mi WSW 17.3 mph 23.0 mph 0.00 in Rain Light Rain
1:51 PM 59.0 °F 55.0 °F 87% 29.74 in 10.0 mi SW 11.5 mph 23.0 mph 0.01 in   Overcast
2:51 PM 57.0 °F 54.0 °F 89% 29.75 in 3.0 mi SW 24.2 mph 33.4 mph 0.04 in Rain Rain
2:57 PM 57.2 °F 53.6 °F 88% 29.90 in 1.5 mi SW 16.1 mph 32.2 mph 0.05 in Rain Heavy Rain
3:05 PM 57.2 °F 55.4 °F 94% 29.89 in 4.0 mi WSW 11.5 mph - 0.10 in Rain Light Rain
3:08 PM 57.2 °F 55.4 °F 94% 29.90 in 8.0 mi SW 13.8 mph - N/A Rain , Thunderstorm Light Rain
3:15 PM 57.2 °F 55.4 °F 94% 29.90 in 2.5 mi WSW 12.7 mph - 0.14 in Rain , Thunderstorm Thunderstorms and Rain
3:24 PM 57.2 °F 55.4 °F 94% 29.89 in 5.0 mi WSW 16.1 mph - N/A Rain , Thunderstorm Thunderstorms and Rain
3:51 PM 57.9 °F 55.0 °F 90% 29.76 in 8.0 mi SSW 10.4 mph - 0.21 in Rain , Thunderstorm Light Rain
3:54 PM 59.0 °F 55.4 °F 88% 29.91 in 7.0 mi SSW 6.9 mph - 0.01 in Rain Rain
4:06 PM 59.0 °F 53.6 °F 82% 29.90 in 10.0 mi Calm Calm - 0.02 in Rain , Thunderstorm Light Rain
4:27 PM 59.0 °F 55.4 °F 88% 29.90 in 10.0 mi NE 6.9 mph - 0.02 in   Overcast
4:51 PM 59.0 °F 55.9 °F 90% 29.74 in 9.0 mi NNW 6.9 mph - 0.02 in   Overcast
5:04 PM 57.2 °F 55.4 °F 94% 29.89 in 10.0 mi North 8.1 mph - 0.00 in Rain Light Rain
5:51 PM 57.2 °F 55.4 °F 94% 29.89 in 10.0 mi NE 5.8 mph - N/A   Mostly Cloudy
6:51 PM 57.2 °F 55.4 °F 94% 29.90 in 10.0 mi NE 4.6 mph - N/A   Mostly Cloudy
7:51 PM 55.9 °F 55.0 °F 97% 29.76 in 10.0 mi NW 3.5 mph - N/A   Scattered Clouds
8:51 PM 55.4 °F 53.6 °F 94% 29.93 in 10.0 mi Calm Calm - N/A   Scattered Clouds
9:51 PM 55.0 °F 53.1 °F 93% 29.78 in 10.0 mi East 3.5 mph - N/A   Scattered Clouds
10:51 PM 55.0 °F 52.0 °F 89% 29.77 in 10.0 mi ESE 12.7 mph - N/A   Partly Cloudy
11:51 PM 52.0 °F 48.0 °F 86% 29.77 in 10.0 mi SSW 4.6 mph - N/A   Clear